Year,Month,Day,Hour,Minute,Value (Times are PST for temperature in C)
2012,02,01,08,07,4.60
2012,02,01,08,08,4.60
2012,02,01,08,09,4.60
2012,02,01,08,10,4.60
2012,02,01,08,11,4.70
2012,02,01,08,12,4.70
2012,02,01,08,13,4.70
2012,02,01,08,14,4.70
2012,02,01,08,15,4.70
2012,02,01,08,16,4.70
2012,02,01,08,17,4.80
2012,02,01,08,18,4.80
2012,02,01,08,19,4.80
2012,02,01,08,20,4.80
2012,02,01,08,21,4.90
2012,02,01,08,22,4.90
2012,02,01,08,23,4.90
2012,02,01,08,24,4.90
2012,02,01,08,25,4.90
2012,02,01,08,26,4.90
2012,02,01,08,27,5.00
2012,02,01,08,28,5.10
2012,02,01,08,29,5.10
2012,02,01,08,30,5.10
2012,02,01,08,31,5.10
2012,02,01,08,32,5.10
2012,02,01,08,33,5.10
2012,02,01,08,34,5.10
2012,02,01,08,35,5.10
2012,02,01,08,36,5.10
2012,02,01,08,37,5.20
2012,02,01,08,38,5.20
2012,02,01,08,39,5.20
2012,02,01,08,40,5.20
2012,02,01,08,41,5.30
2012,02,01,08,42,5.30
2012,02,01,08,43,5.30
2012,02,01,08,44,5.30
2012,02,01,08,45,5.30
2012,02,01,08,46,5.30
2012,02,01,08,47,5.30
2012,02,01,08,48,5.30
2012,02,01,08,49,5.30
2012,02,01,08,50,5.40
2012,02,01,08,51,5.40
2012,02,01,08,52,5.40
2012,02,01,08,53,5.50
2012,02,01,08,54,5.50
2012,02,01,08,55,5.60
2012,02,01,08,56,5.60
2012,02,01,08,57,5.60
2012,02,01,08,58,5.60
2012,02,01,08,59,5.70
2012,02,01,09,00,5.70
2012,02,01,09,01,5.70
2012,02,01,09,02,5.70
2012,02,01,09,03,5.70
2012,02,01,09,04,5.70
2012,02,01,09,05,5.70
2012,02,01,09,06,5.70
2012,02,01,09,07,5.70
2012,02,01,09,08,5.70
2012,02,01,09,09,5.70
2012,02,01,09,10,5.80
2012,02,01,09,11,5.80
2012,02,01,09,12,5.80
2012,02,01,09,13,5.80
2012,02,01,09,14,5.80
2012,02,01,09,15,5.80
2012,02,01,09,16,5.80
2012,02,01,09,17,5.80
2012,02,01,09,18,5.80
2012,02,01,09,19,5.80
2012,02,01,09,20,5.90
2012,02,01,09,21,5.90
2012,02,01,09,22,5.90
2012,02,01,09,23,5.90
2012,02,01,09,24,5.90
2012,02,01,09,25,5.90
2012,02,01,09,26,5.90
2012,02,01,09,27,5.90
2012,02,01,09,28,5.90
2012,02,01,09,29,5.90
2012,02,01,09,30,5.90
2012,02,01,09,31,5.90
2012,02,01,09,32,5.90
2012,02,01,09,33,6.00
2012,02,01,09,34,6.00
2012,02,01,09,35,6.10
2012,02,01,09,36,6.10
2012,02,01,09,37,6.20
2012,02,01,09,38,6.20
2012,02,01,09,39,6.20
2012,02,01,09,40,6.20
2012,02,01,09,41,6.20
2012,02,01,09,42,6.20
2012,02,01,09,43,6.20
2012,02,01,09,44,6.30
2012,02,01,09,45,6.30
2012,02,01,09,46,6.30
2012,02,01,09,47,6.30
2012,02,01,09,48,6.30
2012,02,01,09,49,6.30
2012,02,01,09,50,6.30
2012,02,01,09,51,6.30
2012,02,01,09,52,6.30
2012,02,01,09,53,6.30
2012,02,01,09,54,6.40
2012,02,01,09,55,6.40
2012,02,01,09,56,6.40
2012,02,01,09,57,6.40
2012,02,01,09,58,6.40
2012,02,01,09,59,6.40
2012,02,01,10,00,6.40
2012,02,01,10,01,6.50
2012,02,01,10,02,6.60
2012,02,01,10,03,6.60
2012,02,01,10,04,6.60
2012,02,01,10,05,6.60
2012,02,01,10,06,6.60
2012,02,01,10,07,6.60
2012,02,01,10,08,6.60
2012,02,01,10,09,6.60
2012,02,01,10,10,6.60
2012,02,01,10,11,6.60
2012,02,01,10,12,6.60
2012,02,01,10,13,6.60
2012,02,01,10,14,6.70
2012,02,01,10,15,6.70
2012,02,01,10,16,6.70
2012,02,01,10,17,6.70
2012,02,01,10,18,6.80
2012,02,01,10,19,6.80
2012,02,01,10,20,6.80
2012,02,01,10,21,6.80
2012,02,01,10,22,6.80
2012,02,01,10,23,6.80
2012,02,01,10,24,6.70
2012,02,01,10,25,6.70
2012,02,01,10,26,6.70
2012,02,01,10,27,6.70
2012,02,01,10,28,6.80
2012,02,01,10,29,6.80
2012,02,01,10,30,6.80
2012,02,01,10,31,6.80
2012,02,01,10,32,6.80
2012,02,01,10,33,6.90
2012,02,01,10,34,6.90
2012,02,01,10,35,6.90
2012,02,01,10,36,7.00
2012,02,01,10,37,7.00
2012,02,01,10,38,7.00
2012,02,01,10,39,6.90
2012,02,01,10,40,7.00
2012,02,01,10,41,7.00
2012,02,01,10,42,7.00
2012,02,01,10,43,7.00
2012,02,01,10,44,7.10
2012,02,01,10,45,7.10
2012,02,01,10,46,7.10
2012,02,01,10,47,7.10
2012,02,01,10,48,7.20
2012,02,01,10,49,7.20
2012,02,01,10,50,7.30
2012,02,01,10,51,7.30
2012,02,01,10,52,7.30
2012,02,01,10,53,7.30
2012,02,01,10,54,7.30
2012,02,01,10,55,7.30
2012,02,01,10,56,7.30
2012,02,01,10,57,7.30
2012,02,01,10,58,7.30
2012,02,01,10,59,7.30
2012,02,01,11,00,7.20
2012,02,01,11,01,7.20
2012,02,01,11,02,7.20
2012,02,01,11,03,7.30
2012,02,01,11,04,7.30
2012,02,01,11,05,7.30
2012,02,01,11,06,7.30
2012,02,01,11,07,7.40
2012,02,01,11,08,7.40
2012,02,01,11,09,7.30
2012,02,01,11,10,7.40
2012,02,01,11,11,7.40
2012,02,01,11,12,7.40
2012,02,01,11,13,7.40
2012,02,01,11,14,7.40
2012,02,01,11,15,7.40
2012,02,01,11,16,7.40
2012,02,01,11,17,7.50
2012,02,01,11,18,7.50
2012,02,01,11,19,7.60
2012,02,01,11,20,7.70
2012,02,01,11,21,7.70
2012,02,01,11,22,7.70
2012,02,01,11,23,7.70
2012,02,01,11,24,7.70
2012,02,01,11,25,7.70
2012,02,01,11,26,7.70
2012,02,01,11,27,7.70
2012,02,01,11,28,7.70
2012,02,01,11,29,7.70
2012,02,01,11,30,7.60
2012,02,01,11,31,7.60
2012,02,01,11,32,7.60
2012,02,01,11,33,7.70
2012,02,01,11,34,7.70
2012,02,01,11,35,7.70
2012,02,01,11,36,7.70
2012,02,01,11,37,7.70
2012,02,01,11,38,7.70
2012,02,01,11,39,7.70
2012,02,01,11,40,7.80
2012,02,01,11,41,7.80
2012,02,01,11,42,7.70
2012,02,01,11,43,7.70
2012,02,01,11,44,7.70
2012,02,01,11,45,7.70
2012,02,01,11,46,7.80
2012,02,01,11,47,7.80
2012,02,01,11,48,7.80
2012,02,01,11,49,7.70
2012,02,01,11,50,7.70
2012,02,01,11,51,7.70
2012,02,01,11,52,7.70
2012,02,01,11,53,7.60
2012,02,01,11,54,7.60
2012,02,01,11,55,7.60
2012,02,01,11,56,7.50
2012,02,01,11,57,7.40
2012,02,01,11,58,7.40
2012,02,01,11,59,7.40
2012,02,01,12,00,7.40
2012,02,01,12,01,7.40
2012,02,01,12,02,7.40
2012,02,01,12,03,7.40
2012,02,01,12,04,7.40
2012,02,01,12,05,7.40
2012,02,01,12,06,7.50
2012,02,01,12,07,7.50
2012,02,01,12,08,7.60
2012,02,01,12,09,7.60
2012,02,01,12,10,7.60
2012,02,01,12,11,7.60
2012,02,01,12,12,7.60
2012,02,01,12,13,7.60
2012,02,01,12,14,7.60
2012,02,01,12,15,7.60
2012,02,01,12,16,7.60
2012,02,01,12,17,7.60
2012,02,01,12,18,7.60
2012,02,01,12,19,7.60
2012,02,01,12,20,7.60
2012,02,01,12,21,7.50
2012,02,01,12,22,7.50
2012,02,01,12,23,7.50
2012,02,01,12,24,7.60
2012,02,01,12,25,7.60
2012,02,01,12,26,7.70
2012,02,01,12,27,7.70
2012,02,01,12,28,7.80
2012,02,01,12,29,7.80
2012,02,01,12,30,7.90
2012,02,01,12,31,7.90
2012,02,01,12,32,7.90
2012,02,01,12,33,7.90
2012,02,01,12,34,7.90
2012,02,01,12,35,7.90
2012,02,01,12,36,7.90
2012,02,01,12,37,7.80
2012,02,01,12,38,7.80
2012,02,01,12,39,7.80
2012,02,01,12,40,7.80
2012,02,01,12,41,7.80
2012,02,01,12,42,7.80
2012,02,01,12,43,7.80
2012,02,01,12,44,7.80
2012,02,01,12,45,7.80
2012,02,01,12,46,7.90
2012,02,01,12,47,7.90
2012,02,01,12,48,7.90
2012,02,01,12,49,7.90
2012,02,01,12,50,7.90
2012,02,01,12,51,7.90
2012,02,01,12,52,7.90
2012,02,01,12,53,7.90
2012,02,01,12,54,7.90
2012,02,01,12,55,7.90
2012,02,01,12,56,7.90
2012,02,01,12,57,8.00
2012,02,01,12,58,8.00
2012,02,01,12,59,8.00
2012,02,01,13,00,8.00
2012,02,01,13,01,8.10
2012,02,01,13,02,8.20
2012,02,01,13,03,8.20
2012,02,01,13,04,8.20
2012,02,01,13,05,8.20
2012,02,01,13,06,8.20
2012,02,01,13,07,8.20
2012,02,01,13,08,8.20
2012,02,01,13,09,8.20
2012,02,01,13,10,8.20
2012,02,01,13,11,8.20
2012,02,01,13,12,8.20
2012,02,01,13,13,8.20
2012,02,01,13,14,8.20
2012,02,01,13,15,8.10
2012,02,01,13,16,8.10
2012,02,01,13,17,8.10
2012,02,01,13,18,8.10
2012,02,01,13,19,8.10
2012,02,01,13,20,8.10
2012,02,01,13,21,8.10
2012,02,01,13,22,8.00
2012,02,01,13,23,8.00
2012,02,01,13,24,8.00
2012,02,01,13,25,8.00
2012,02,01,13,26,8.00
2012,02,01,13,27,8.00
2012,02,01,13,28,8.00
2012,02,01,13,29,8.00
2012,02,01,13,30,8.00
2012,02,01,13,31,8.00
2012,02,01,13,32,8.00
2012,02,01,13,33,8.00
2012,02,01,13,34,8.00
2012,02,01,13,35,8.00
2012,02,01,13,36,7.90
2012,02,01,13,37,7.90
2012,02,01,13,38,7.90
2012,02,01,13,39,7.90
2012,02,01,13,40,7.90
2012,02,01,13,41,7.90
2012,02,01,13,42,7.90
2012,02,01,13,43,7.90
2012,02,01,13,44,7.80
2012,02,01,13,45,7.90
2012,02,01,13,46,7.90
2012,02,01,13,47,8.00
2012,02,01,13,48,8.00
2012,02,01,13,49,8.00
2012,02,01,13,50,8.00
2012,02,01,13,51,8.10
2012,02,01,13,52,8.20
2012,02,01,13,53,8.20
2012,02,01,13,54,8.20
2012,02,01,13,55,8.20
2012,02,01,13,56,8.10
2012,02,01,13,57,8.10
2012,02,01,13,58,8.10
2012,02,01,13,59,8.10
2012,02,01,14,00,8.10
2012,02,01,14,01,8.10
2012,02,01,14,02,8.10
2012,02,01,14,03,8.10
2012,02,01,14,04,8.20
2012,02,01,14,05,8.20
2012,02,01,14,06,8.20
2012,02,01,14,07,8.30
2012,02,01,14,08,8.30
2012,02,01,14,09,8.30
2012,02,01,14,10,8.30
2012,02,01,14,11,8.40
2012,02,01,14,12,8.40
2012,02,01,14,13,8.40
2012,02,01,14,14,8.40
2012,02,01,14,15,8.40
2012,02,01,14,16,8.40
2012,02,01,14,17,8.40
2012,02,01,14,18,8.40
2012,02,01,14,19,8.40
2012,02,01,14,20,8.40
2012,02,01,14,21,8.40
2012,02,01,14,22,8.40
2012,02,01,14,23,8.40
2012,02,01,14,24,8.40
2012,02,01,14,25,8.40
2012,02,01,14,26,8.40
2012,02,01,14,27,8.30
2012,02,01,14,28,8.30
2012,02,01,14,29,8.20
2012,02,01,14,30,8.20
2012,02,01,14,31,8.20
2012,02,01,14,32,8.20
2012,02,01,14,33,8.30
2012,02,01,14,34,8.30
2012,02,01,14,35,8.30
2012,02,01,14,36,8.40
2012,02,01,14,37,8.40
2012,02,01,14,38,8.50
2012,02,01,14,39,8.50
2012,02,01,14,40,8.50
2012,02,01,14,41,8.50
2012,02,01,14,42,8.50
2012,02,01,14,43,8.50
2012,02,01,14,44,8.40
2012,02,01,14,45,8.40
2012,02,01,14,46,8.40
2012,02,01,14,47,8.40
2012,02,01,14,48,8.40
2012,02,01,14,49,8.40
2012,02,01,14,50,8.40
2012,02,01,14,51,8.40
2012,02,01,14,52,8.40
2012,02,01,14,53,8.40
2012,02,01,14,54,8.50
2012,02,01,14,55,8.60
2012,02,01,14,56,8.60
2012,02,01,14,57,8.70
2012,02,01,14,58,8.70
2012,02,01,14,59,8.80
2012,02,01,15,00,8.90
2012,02,01,15,01,8.90
2012,02,01,15,02,9.00
2012,02,01,15,03,8.90
2012,02,01,15,04,8.90
2012,02,01,15,05,8.80
2012,02,01,15,06,8.80
2012,02,01,15,07,8.70
2012,02,01,15,08,8.70
2012,02,01,15,09,8.60
2012,02,01,15,10,8.60
2012,02,01,15,11,8.60
2012,02,01,15,12,8.60
2012,02,01,15,13,8.60
2012,02,01,15,14,8.60
2012,02,01,15,15,8.60
2012,02,01,15,16,8.60
2012,02,01,15,17,8.50
2012,02,01,15,18,8.50
2012,02,01,15,19,8.50
2012,02,01,15,20,8.50
2012,02,01,15,21,8.50
2012,02,01,15,22,8.50
2012,02,01,15,23,8.40
2012,02,01,15,24,8.40
2012,02,01,15,25,8.40
2012,02,01,15,26,8.40
2012,02,01,15,27,8.30
2012,02,01,15,28,8.30
2012,02,01,15,29,8.30
2012,02,01,15,30,8.30
2012,02,01,15,31,8.30
2012,02,01,15,32,8.30
2012,02,01,15,33,8.30
2012,02,01,15,34,8.30
2012,02,01,15,35,8.30
2012,02,01,15,36,8.30
2012,02,01,15,37,8.30
2012,02,01,15,38,8.40
2012,02,01,15,39,8.40
2012,02,01,15,40,8.40
2012,02,01,15,41,8.40
2012,02,01,15,42,8.40
2012,02,01,15,43,8.40
2012,02,01,15,44,8.40
2012,02,01,15,45,8.40
2012,02,01,15,46,8.40
2012,02,01,15,47,8.40
2012,02,01,15,48,8.50
2012,02,01,15,49,8.50
2012,02,01,15,50,8.60
2012,02,01,15,51,8.60
2012,02,01,15,52,8.70
2012,02,01,15,53,8.70
2012,02,01,15,54,8.70
2012,02,01,15,55,8.70
2012,02,01,15,56,8.70
2012,02,01,15,57,8.70
2012,02,01,15,58,8.70
2012,02,01,15,59,8.70
2012,02,01,16,00,8.80
2012,02,01,16,01,8.80
2012,02,01,16,02,8.80
2012,02,01,16,03,8.80
2012,02,01,16,04,8.80
2012,02,01,16,05,8.80
2012,02,01,16,06,8.70
2012,02,01,16,07,8.70
2012,02,01,16,08,8.70
2012,02,01,16,09,8.70
2012,02,01,16,10,8.70
2012,02,01,16,11,8.70
2012,02,01,16,12,8.70
2012,02,01,16,13,8.70
2012,02,01,16,14,8.70
2012,02,01,16,15,8.70
2012,02,01,16,16,8.70
2012,02,01,16,17,8.70
2012,02,01,16,18,8.70
2012,02,01,16,19,8.70
2012,02,01,16,20,8.70
2012,02,01,16,21,8.70
2012,02,01,16,22,8.70
2012,02,01,16,23,8.70
